Weather History for KODX - May, 2013

Change the Weather History Date:

Wednesday, May 15, 2013

  Actual Average Record
Temperature  
Mean Temperature 69 °F 59 °F  
Max Temperature 81 °F 71 °F 93 °F (2001)
Min Temperature 57 °F 46 °F 25 °F (2014)
Degree Days  
Heating Degree Days 0 7  
Month to date heating degree days 184 139  
Since 1 July heating degree days 6786 6492  
Cooling Degree Days 4 1  
Month to date cooling degree days 21 11  
Year to date cooling degree days 22 13  
Growing Degree Days 20 (Base 50)    
Moisture  
Dew Point 38 °F    
Average Humidity 36    
Maximum Humidity 53    
Minimum Humidity 18    
Precipitation  
Precipitation 0.00 in 0.12 in 1.12 in (1925)
Month to date precipitation 1.38 1.64  
Year to date precipitation 6.12 6.49  
Sea Level Pressure  
Sea Level Pressure 29.86 in    
Wind  
Wind Speed 10 mph (ENE)    
Max Wind Speed 25 mph    
Max Gust Speed 39 mph    
Visibility 10 miles    
Events      
T = Trace of Precipitation, MM = Missing Value Source: NWS Daily Summary

Daily Weather History Graph

Daily Weather History Graph

Search for Another Location

Airport or City:

Trip Planner

Search our weather history database for the weather conditions in past years. The results will help you decide how hot, cold, wet, or windy it might be!

Date:

Astronomy

May. 15, 2013 Rise Set
Actual Time 6:16 AM CDT 8:48 PM CDT
Civil Twilight 5:44 AM CDT 9:20 PM CDT
Nautical Twilight 5:04 AM CDT 10:00 PM CDT
Astronomical Twilight 4:20 AM CDT 10:45 PM CDT
Moon 10:53 AM CDT (5/15) 12:35 AM CDT (5/15)
Length of Visible Light 15h 36m
Length of Day
14h 32m
Waxing Crescent, 27% of the Moon is Illuminated
May 15
Waxing Crescent
May 17
First Quarter
May 24
Full
May 31
Last Quarter
Jun 8
New

Hourly Weather History & Observations

Time (CDT) Temp. Dew Point Humidity Pressure Visibility Wind Dir Wind Speed Gust Speed Precip Events Conditions
12:53 AM 66.9 °F 37.9 °F 34% 29.79 in 10.0 mi Variable 3.5 mph - N/A   Clear
1:53 AM 63.0 °F 37.9 °F 40% 29.81 in 10.0 mi East 3.5 mph - N/A   Clear
2:53 AM 60.1 °F 41.0 °F 49% 29.83 in 10.0 mi NNE 4.6 mph - N/A   Clear
3:53 AM 59.0 °F 39.0 °F 48% 29.86 in 10.0 mi North 6.9 mph - N/A   Clear
4:53 AM 61.0 °F 39.0 °F 44% 29.82 in 10.0 mi ESE 6.9 mph - N/A   Clear
5:53 AM 61.0 °F 41.0 °F 48% 29.85 in 10.0 mi NE 6.9 mph - N/A   Clear
6:53 AM 59.0 °F 42.1 °F 53% 29.90 in 10.0 mi NNE 8.1 mph - N/A   Clear
7:53 AM 62.1 °F 43.0 °F 50% 29.90 in 10.0 mi ENE 12.7 mph 20.7 mph N/A   Clear
8:53 AM 63.0 °F 42.1 °F 46% 29.91 in 10.0 mi ENE 13.8 mph 24.2 mph N/A   Clear
9:53 AM 66.0 °F 39.9 °F 38% 29.93 in 10.0 mi ENE 13.8 mph 23.0 mph N/A   Clear
10:53 AM 68.0 °F 36.0 °F 31% 29.92 in 10.0 mi East 18.4 mph 25.3 mph N/A   Clear
11:53 AM 72.0 °F 37.0 °F 28% 29.92 in 10.0 mi East 21.9 mph 28.8 mph N/A   Clear
12:53 PM 75.0 °F 32.0 °F 21% 29.90 in 10.0 mi East 21.9 mph 31.1 mph N/A   Clear
1:53 PM 77.0 °F 34.0 °F 21% 29.88 in 10.0 mi East 16.1 mph 25.3 mph N/A   Clear
2:53 PM 80.1 °F 35.1 °F 20% 29.87 in 10.0 mi East 16.1 mph 27.6 mph N/A   Clear
3:53 PM 80.1 °F 35.1 °F 20% 29.85 in 10.0 mi ESE 17.3 mph 23.0 mph N/A   Clear
4:53 PM 81.0 °F 35.1 °F 19% 29.83 in 10.0 mi ESE 13.8 mph 29.9 mph N/A   Clear
5:53 PM 81.0 °F 34.0 °F 18% 29.83 in 10.0 mi ESE 12.7 mph - N/A   Clear
6:53 PM 79.0 °F 35.1 °F 20% 29.82 in 10.0 mi East 15.0 mph 20.7 mph N/A   Clear
7:53 PM 77.0 °F 35.1 °F 22% 29.81 in 10.0 mi East 10.4 mph - N/A   Clear
8:53 PM 70.0 °F 37.0 °F 30% 29.82 in 10.0 mi ENE 4.6 mph - N/A   Clear
9:53 PM 66.9 °F 39.0 °F 36% 29.83 in 10.0 mi NE 5.8 mph - N/A   Clear
10:53 PM 64.9 °F 41.0 °F 42% 29.85 in 10.0 mi Calm Calm - N/A   Scattered Clouds
11:53 PM 64.9 °F 41.0 °F 42% 29.85 in 10.0 mi Calm Calm - N/A   Scattered Clouds